Weather in Huánuco

Peru     9°56′11″S   76°14′19″W
temp.,
°C
wind,
m/s
gust,
m/s
humid.,
%
clouds,
%
prec.,
mm/h
press.,
hPa
HPBL,
m
3 march, wed
wed301:00+10ese019199 0.4 101727
04:00+9ese1190100 0.4 101630
07:00+9wsw018387 0.4 101859
10:00+14nne226558 0.2 1018898
13:00+17ne435374 0.6 10131458
16:00+16ne446340 1.0 10111006
19:00+10ne229351 3.3 101436
22:00+9wnw119696 0.1 101822
4 march, thu
thu401:00+9sw119198 0.2 101831
04:00+10ssw2288100 0.8 1017145
07:00+10s2281100 0.9 101882
10:00+14nne2264100 0.1 1019854
13:00+16ne4365100 1.8 1014987
16:00+15ne3369100 1.6 1012856
19:00+11nne2294100 2.1 101332
22:00+10nne1298100 0.3 101741
5 march, fri
fri501:00+10nw1195100 0.6 101697
04:00+9n1191100 0.2 101561
07:00+11n0082100 0.6 101775
10:00+14ne3268100 1.1 1017784
13:00+16ne4367100 4.2 1013922
16:00+16ne3367100 1.7 1009918
19:00+11ne2395100 3.1 101293
22:00+9nne1198100 0.2 101659
6 march, sat
sat601:00+9nne019799 0.5 101560
04:00+8ese0196100 0.1 101425
07:00+9nne0192100 0.1 101666
10:00+13nne2275100 0.5 1017617
13:00+13ne4479100 1.3 1014575
16:00+13ne2276100 0.2 1011532
19:00+10nne2295100 0.4 101481
22:00+9n1198100 0.4 101778
7 march, sun
sun701:00+10n1194100 0.9 1016118
04:00+9sw009799 0.8 101538
07:00+9nne119699 1.1 101892
10:00+10n2391100 2.4 1018291
13:00+15ene216696 4.1 1015877
16:00+16ne436363 0.3 10121012
19:00+10ne239671 1.1 101557
22:00+9nw119795 0.3 101891